Location: Verona
(45.4500°N, 11.0000°E)
Time: 13:30:47
(UTC+01:00)

ISS - Visible Passes

Search period start: 24 January 2019 00:00
Search period end: 03 February 2019 00:00
Orbit: 404 x 410 km, 51.6° (Epoch: 24 January)

Date Brightness Start Highest point End Pass type
(mag) Time Alt. Az. Time Alt. Az. Time Alt. Az.
24 Jan -2.0 17:47:03 10° S 17:49:26 19° SE 17:51:50 10° E visible
24 Jan -2.7 19:22:22 10° WSW 19:24:47 44° W 19:24:47 44° W visible
25 Jan -3.8 18:31:01 10° SW 18:34:18 71° SSE 18:35:41 32° ENE visible
25 Jan -0.4 20:08:01 10° W 20:08:24 12° WNW 20:08:24 12° WNW visible
26 Jan -2.8 19:16:23 10° W 19:19:13 40° NW 19:19:13 40° NW visible
27 Jan -3.5 18:24:48 10° WSW 18:28:04 59° NNW 18:30:00 22° NE visible
27 Jan -0.6 20:02:08 10° WNW 20:02:43 13° WNW 20:02:43 13° WNW visible
28 Jan -2.4 19:10:29 10° WNW 19:13:25 30° NNW 19:13:25 30° NNW visible
29 Jan -2.8 18:18:47 10° W 18:21:53 37° NNW 18:24:07 16° NE visible
29 Jan -0.8 19:56:06 10° WNW 19:56:50 14° NW 19:56:50 14° NW visible
30 Jan -2.4 19:04:30 10° WNW 19:07:22 27° N 19:07:30 26° N visible
31 Jan -2.4 18:12:49 10° WNW 18:15:45 28° N 18:18:09 13° NE visible
31 Jan -1.1 19:49:51 10° NW 19:50:52 17° NW 19:50:52 17° NW visible
01 Feb -2.5 18:58:20 10° NW 19:01:16 28° N 19:01:32 28° NNE visible
02 Feb -2.4 18:06:45 10° WNW 18:09:37 26° N 18:12:12 12° ENE visible
02 Feb -1.6 19:43:26 10° NW 19:44:55 23° NW 19:44:55 23° NW visible
